EW6851 Weather Reports


Display with metric or nautical units.
time (UTC)temp
F
wind
direction
speed
MPH
gust
MPH
rain 1hr
in
rain 24hr
in
rain mn
in
humidity
%
barometer
mb
20260509222657 71 123 3.0 10.0 0.00 0.00 0.00 62 1012.6
20260509222148 71 153 1.0 10.0 0.00 0.00 0.00 62 1012.6
20260509221648 71 170 3.0 9.0 0.00 0.00 0.00 63 1012.6
20260509221148 71 100 0.0 8.0 0.00 0.00 0.00 63 1012.7
20260509220648 71 9 2.0 12.0 0.00 0.00 0.00 63 1012.8
20260509220148 71 146 6.0 11.0 0.00 0.00 0.00 64 1012.8
20260509215648 71 182 5.0 11.0 0.00 0.00 0.00 64 1012.8
20260509215157 71 118 1.0 16.0 0.00 0.00 0.00 64 1012.9
20260509214652 70 151 13.0 14.0 0.00 0.00 0.00 65 1013.0
20260509214151 70 148 6.0 15.0 0.00 0.00 0.00 65 1013.1
20260509213648 70 153 8.0 13.0 0.00 0.00 0.00 66 1013.2
20260509213148 71 63 8.0 11.0 0.00 0.00 0.00 65 1013.3
20260509212648 71 144 4.0 16.0 0.00 0.00 0.00 65 1013.2
20260509212151 71 161 3.0 16.0 0.00 0.00 0.00 65 1013.3
20260509211648 71 204 6.0 13.0 0.00 0.00 0.00 64 1013.3
20260509211148 71 154 5.0 11.0 0.00 0.00 0.00 65 1013.4
20260509210648 71 169 0.0 9.0 0.00 0.00 0.00 67 1013.5
20260509210148 70 143 5.0 5.0 0.00 0.00 0.00 70 1013.5
20260509205651 70 128 3.0 5.0 0.00 0.00 0.00 70 1013.5
20260509205148 71 79 3.0 5.0 0.00 0.00 0.00 70 1013.6
20260509204654 71 167 2.0 5.0 0.00 0.00 0.00 70 1013.7
20260509204154 70 207 3.0 4.0 0.00 0.00 0.00 73 1013.8
20260509203653 70 194 0.0 4.0 0.00 0.00 0.00 74 1013.9
20260509203151 70 161 0.0 4.0 0.00 0.00 0.00 74 1014.0
20260509202648 70 159 0.0 5.0 0.00 0.00 0.00 74 1014.0
20260509202148 70 136 0.0 5.0 0.00 0.00 0.00 74 1014.0
20260509201648 70 161 0.0 4.0 0.00 0.00 0.00 74 1014.1
20260509201151 70 118 0.0 5.0 0.00 0.00 0.00 73 1014.1
20260509200648 70 143 0.0 6.0 0.00 0.00 0.00 72 1014.4
20260509200152 70 125 0.0 2.0 0.00 0.00 0.00 72 1014.7
20260509195655 70 125 0.0 3.0 0.00 0.00 0.00 72 1014.7
20260509195148 70 172 0.0 3.0 0.00 0.00 0.00 72 1014.7
20260509194649 70 36 0.0 4.0 0.00 0.00 0.00 73 1014.8
20260509194151 70 155 0.0 0.0 0.00 0.00 0.00 73 1014.9
20260509193654 70 155 0.0 3.0 0.00 0.00 0.00 73 1015.0
20260509193151 70 196 2.0 6.0 0.00 0.00 0.00 73 1014.9
20260509192648 70 177 0.0 0.0 0.00 0.00 0.00 74 1014.8
20260509192148 70 274 0.0 0.0 0.00 0.00 0.00 75 1014.9
20260509191648 70 285 0.0 0.0 0.00 0.00 0.00 77 1014.8
20260509191157 70 286 0.0 0.0 0.00 0.00 0.00 77 1014.7
20260509190651 70 286 0.0 0.0 0.00 0.00 0.00 77 1014.8
20260509190148 70 286 0.0 0.0 0.00 0.00 0.00 77 1014.9
20260509185651 70 286 0.0 2.0 0.00 0.00 0.00 76 1014.9
20260509185149 70 286 0.0 2.0 0.00 0.00 0.00 76 1014.9
20260509184649 70 286 1.0 4.0 0.00 0.00 0.00 75 1014.9
20260509184151 70 281 3.0 3.0 0.00 0.00 0.00 74 1014.7
20260509183648 70 300 1.0 2.0 0.00 0.00 0.00 74 1014.6
20260509183151 70 300 0.0 1.0 0.00 0.00 0.00 74 1014.5
20260509182652 70 240 0.0 3.0 0.00 0.00 0.00 73 1014.6
20260509182151 71 254 0.0 4.0 0.00 0.00 0.00 73 1014.7
20260509181648 71 240 1.0 3.0 0.00 0.00 0.00 71 1014.6
20260509181151 71 310 0.0 0.0 0.00 0.00 0.00 69 1014.7
20260509180654 71 310 0.0 0.0 0.00 0.00 0.00 69 1014.7
20260509180151 71 5 0.0 2.0 0.00 0.00 0.00 68 1014.7
20260509175654 71 9 2.0 4.0 0.00 0.00 0.00 67 1014.7
20260509175151 72 277 0.0 1.0 0.00 0.00 0.00 66 1014.7
20260509174649 72 276 0.0 2.0 0.00 0.00 0.00 65 1015.0
20260509174148 72 9 0.0 3.0 0.00 0.00 0.00 63 1015.0
20260509173651 72 23 1.0 4.0 0.00 0.00 0.00 61 1014.9
20260509173151 72 34 2.0 5.0 0.00 0.00 0.00 61 1015.0
20260509172648 72 301 5.0 5.0 0.00 0.00 0.00 64 1015.0
20260509172149 72 298 2.0 4.0 0.00 0.00 0.00 64 1014.9
20260509171648 71 319 2.0 4.0 0.00 0.00 0.00 64 1014.9
20260509171148 71 23 4.0 4.0 0.00 0.00 0.00 64 1014.7
20260509170648 72 32 1.0 6.0 0.00 0.00 0.00 64 1014.5
20260509170154 72 24 2.0 5.0 0.00 0.00 0.00 64 1014.5
20260509165651 72 5 3.0 5.0 0.00 0.00 0.00 62 1014.5
20260509165151 72 336 3.0 7.0 0.00 0.00 0.00 62 1014.4
20260509164648 72 347 2.0 6.0 0.00 0.00 0.00 60 1014.5
20260509164149 73 28 3.0 6.0 0.00 0.00 0.00 59 1014.4
20260509163648 73 340 3.0 5.0 0.00 0.00 0.00 59 1014.5
20260509163158 73 43 0.0 5.0 0.00 0.00 0.00 58 1014.5
20260509162648 73 26 2.0 6.0 0.00 0.00 0.00 59 1014.5
20260509162148 73 9 2.0 6.0 0.00 0.00 0.00 58 1014.5
20260509161651 73 9 3.0 5.0 0.00 0.00 0.00 59 1014.5
20260509161151 73 20 3.0 7.0 0.00 0.00 0.00 59 1014.5
20260509160648 73 340 5.0 7.0 0.00 0.00 0.00 59 1014.7
20260509160149 73 5 6.0 7.0 0.00 0.00 0.00 59 1014.7
20260509155654 73 13 4.0 6.0 0.00 0.00 0.00 59 1014.9
20260509155151 73 350 5.0 8.0 0.00 0.00 0.00 59 1014.9
20260509154651 73 350 4.0 7.0 0.00 0.00 0.00 61 1014.9
20260509154148 73 22 2.0 8.0 0.00 0.00 0.00 62 1014.9
20260509153648 73 355 4.0 7.0 0.00 0.00 0.00 61 1015.0
20260509153151 73 13 6.0 8.0 0.00 0.00 0.00 61 1015.2
20260509152648 73 337 6.0 9.0 0.00 0.00 0.00 62 1015.3
20260509152148 74 40 5.0 8.0 0.00 0.00 0.00 62 1015.4
20260509151648 73 66 2.0 7.0 0.00 0.00 0.00 62 1015.4
20260509151150 74 28 2.0 8.0 0.00 0.00 0.00 61 1015.4
20260509150649 74 34 4.0 8.0 0.00 0.00 0.00 59 1015.4
20260509150149 75 11 5.0 8.0 0.00 0.00 0.00 59 1015.4
20260509145654 75 326 6.0 8.0 0.00 0.00 0.00 59 1015.4
20260509145148 74 296 8.0 8.0 0.00 0.00 0.00 61 1015.5
20260509144651 74 32 2.0 7.0 0.00 0.00 0.00 62 1015.5
20260509144148 73 60 1.0 8.0 0.00 0.00 0.00 62 1015.4
20260509143649 74 5 3.0 8.0 0.00 0.00 0.00 62 1015.5
20260509143151 74 55 5.0 9.0 0.00 0.00 0.00 62 1015.4
20260509142657 74 5 5.0 8.0 0.00 0.00 0.00 62 1015.4
20260509142148 74 16 3.0 6.0 0.00 0.00 0.00 62 1015.5
20260509141651 74 38 1.0 9.0 0.00 0.00 0.00 62 1015.6
20260509141149 74 15 6.0 10.0 0.00 0.00 0.00 62 1015.7
20260509140651 74 13 3.0 7.0 0.00 0.00 0.00 60 1015.7
20260509140152 74 22 4.0 9.0 0.00 0.00 0.00 56 1015.8
20260509135649 74 355 5.0 6.0 0.00 0.00 0.00 58 1015.8
20260509135148 74 17 4.0 8.0 0.00 0.00 0.00 58 1015.7
20260509134649 74 13 4.0 12.0 0.00 0.00 0.00 58 1015.7
20260509134148 75 20 6.0 9.0 0.00 0.00 0.00 58 1015.8
20260509133649 75 5 4.0 7.0 0.00 0.00 0.00 58 1015.7
20260509133148 75 322 2.0 10.0 0.00 0.00 0.00 59 1015.7
20260509132648 76 36 1.0 8.0 0.00 0.00 0.00 58 1015.7
20260509132148 76 325 6.0 8.0 0.00 0.00 0.00 59 1015.7
20260509131648 76 30 7.0 8.0 0.00 0.00 0.00 59 1015.6
20260509131148 76 346 5.0 9.0 0.00 0.00 0.00 59 1015.7
20260509130648 76 328 2.0 7.0 0.00 0.00 0.00 59 1015.6
20260509130157 75 304 6.0 11.0 0.00 0.00 0.00 59 1015.6
20260509125652 75 29 4.0 8.0 0.00 0.00 0.00 60 1015.6
20260509125148 75 27 3.0 8.0 0.00 0.00 0.00 60 1015.6
20260509124655 75 19 2.0 10.0 0.00 0.00 0.00 58 1015.5
20260509124149 75 325 3.0 11.0 0.00 0.00 0.00 59 1015.5
20260509123649 75 340 4.0 10.0 0.00 0.00 0.00 59 1015.5
20260509123149 75 13 2.0 11.0 0.00 0.00 0.00 57 1015.6
20260509122648 76 339 6.0 10.0 0.00 0.00 0.00 59 1015.6
20260509122152 76 36 2.0 7.0 0.00 0.00 0.00 61 1015.6
20260509121649 75 318 5.0 9.0 0.00 0.00 0.00 60 1015.6
20260509121151 76 344 7.0 8.0 0.00 0.00 0.00 57 1015.6
20260509120649 75 5 3.0 7.0 0.00 0.00 0.00 58 1015.6
20260509120154 75 254 3.0 8.0 0.00 0.00 0.00 59 1015.7
20260509115651 75 281 0.0 9.0 0.00 0.00 0.00 59 1015.7
20260509115152 75 290 2.0 8.0 0.00 0.00 0.00 59 1015.8
20260509114648 75 288 2.0 7.0 0.00 0.00 0.00 61 1015.8
20260509114148 75 329 5.0 7.0 0.00 0.00 0.00 60 1015.9
20260509113652 74 294 1.0 7.0 0.00 0.00 0.00 63 1015.9
20260509113151 74 317 2.0 8.0 0.00 0.00 0.00 63 1015.9
20260509112649 74 283 4.0 10.0 0.00 0.00 0.00 63 1016.0
20260509112149 75 276 7.0 8.0 0.00 0.00 0.00 63 1016.0
20260509111648 74 299 4.0 10.0 0.00 0.00 0.00 64 1015.9
20260509111148 74 303 5.0 9.0 0.00 0.00 0.00 63 1015.9
20260509110652 74 270 8.0 9.0 0.00 0.00 0.00 63 1016.0
20260509110149 74 321 0.0 8.0 0.00 0.00 0.00 64 1016.0
20260509105651 74 274 5.0 7.0 0.00 0.00 0.00 65 1016.1
20260509105148 74 342 2.0 10.0 0.00 0.00 0.00 66 1016.1
20260509104651 74 22 3.0 10.0 0.00 0.00 0.00 66 1016.1
20260509104150 74 294 5.0 7.0 0.00 0.00 0.00 65 1016.1
20260509103648 74 355 2.0 9.0 0.00 0.00 0.00 65 1016.2
20260509103155 74 316 4.0 6.0 0.00 0.00 0.00 65 1016.2
20260509102648 74 319 0.0 6.0 0.00 0.00 0.00 65 1016.4
20260509102149 73 278 5.0 9.0 0.00 0.00 0.00 66 1016.5
20260509101648 73 313 2.0 7.0 0.00 0.00 0.00 67 1016.4
20260509101149 73 304 3.0 6.0 0.00 0.00 0.00 67 1016.5
20260509100654 73 342 6.0 7.0 0.00 0.00 0.00 66 1016.6
20260509100148 73 333 3.0 8.0 0.00 0.00 0.00 67 1016.6
20260509095648 72 319 3.0 5.0 0.00 0.00 0.00 68 1016.6
20260509095149 72 291 4.0 6.0 0.00 0.00 0.00 68 1016.6
20260509094652 72 300 3.0 7.0 0.00 0.00 0.00 68 1016.6
20260509094149 72 355 4.0 5.0 0.00 0.00 0.00 69 1016.6
20260509093651 71 298 0.0 4.0 0.00 0.00 0.00 70 1016.7
20260509093149 71 43 0.0 5.0 0.00 0.00 0.00 69 1016.7
20260509092655 71 12 3.0 6.0 0.00 0.00 0.00 70 1016.7
20260509092149 71 250 3.0 5.0 0.00 0.00 0.00 71 1016.9
20260509091658 71 42 2.0 6.0 0.00 0.00 0.00 71 1016.9
20260509091155 71 107 1.0 6.0 0.00 0.00 0.00 72 1016.9
20260509090655 70 284 3.0 7.0 0.00 0.00 0.00 73 1017.0
20260509090152 70 297 2.0 7.0 0.00 0.00 0.00 73 1017.0
20260509085649 70 294 5.0 7.0 0.00 0.00 0.00 74 1016.9
20260509085149 70 56 1.0 8.0 0.00 0.00 0.00 74 1016.9
20260509084652 69 273 3.0 4.0 0.00 0.00 0.00 78 1017.0
20260509084149 69 14 0.0 5.0 0.00 0.00 0.00 78 1017.0
20260509083650 68 17 2.0 5.0 0.00 0.00 0.00 79 1017.0
20260509083149 68 291 4.0 8.0 0.00 0.00 0.00 79 1017.1
20260509082649 68 341 0.0 5.0 0.00 0.00 0.00 80 1017.1
20260509082152 68 286 3.0 7.0 0.00 0.00 0.00 80 1017.1
20260509081652 68 337 1.0 5.0 0.00 0.00 0.00 80 1017.1
20260509081152 67 327 5.0 6.0 0.00 0.00 0.00 80 1017.2
20260509080652 68 289 3.0 7.0 0.00 0.00 0.00 81 1017.1
20260509080152 68 294 2.0 7.0 0.00 0.00 0.00 81 1017.2
20260509075649 68 267 6.0 7.0 0.00 0.00 0.00 81 1017.1
20260509075158 68 327 3.0 8.0 0.00 0.00 0.00 81 1017.1
20260509074652 68 285 4.0 8.0 0.00 0.00 0.00 81 1017.1
20260509074149 68 304 3.0 8.0 0.00 0.00 0.00 81 1017.0
20260509073658 68 306 4.0 8.0 0.00 0.00 0.00 82 1017.1
20260509073152 68 316 6.0 8.0 0.00 0.00 0.00 82 1017.0
20260509072652 68 278 10.0 10.0 0.00 0.00 0.00 82 1017.0
20260509072150 68 273 2.0 10.0 0.00 0.00 0.00 81 1017.0
20260509071653 68 298 0.0 6.0 0.00 0.00 0.00 82 1017.0
20260509071149 68 318 4.0 8.0 0.00 0.00 0.00 83 1017.0
20260509070649 67 326 2.0 8.0 0.00 0.00 0.00 82 1017.0
20260509070152 67 303 5.0 9.0 0.00 0.00 0.00 82 1017.0
20260509065655 67 291 5.0 8.0 0.00 0.00 0.00 82 1017.1
20260509065152 67 249 3.0 6.0 0.00 0.00 0.00 83 1017.1
20260509064649 66 288 0.0 12.0 0.00 0.00 0.00 83 1017.1
20260509064149 66 322 5.0 7.0 0.00 0.00 0.00 84 1017.0
20260509063649 66 248 0.0 6.0 0.00 0.00 0.00 84 1016.9
20260509063149 66 278 1.0 5.0 0.00 0.00 0.00 84 1016.9
20260509062652 66 265 3.0 4.0 0.00 0.00 0.00 84 1016.9
20260509062149 66 246 4.0 5.0 0.00 0.00 0.00 84 1016.9
20260509061649 66 236 4.0 8.0 0.00 0.00 0.00 83 1016.8
20260509061155 66 277 0.0 3.0 0.00 0.00 0.00 83 1016.7
20260509060655 66 298 0.0 6.0 0.00 0.00 0.00 83 1016.6
20260509060149 66 231 1.0 7.0 0.00 0.00 0.00 83 1016.6
20260509055655 66 290 1.0 4.0 0.00 0.00 0.00 83 1016.6
20260509055152 66 249 0.0 9.0 0.00 0.00 0.00 83 1016.5
20260509054649 66 229 0.0 5.0 0.00 0.00 0.00 83 1016.5
20260509054150 66 293 1.0 7.0 0.00 0.00 0.00 83 1016.5
20260509053652 66 285 0.0 0.0 0.00 0.00 0.00 83 1016.5
20260509053149 66 19 0.0 3.0 0.00 0.00 0.00 83 1016.4
20260509052649 66 19 1.0 2.0 0.00 0.00 0.00 83 1016.4
20260509052149 66 19 2.0 3.0 0.00 0.00 0.00 83 1016.3
20260509051649 66 19 0.0 0.0 0.00 0.00 0.00 83 1016.2
20260509051158 66 19 0.0 0.0 0.00 0.00 0.00 84 1016.2
20260509050649 66 19 0.0 0.0 0.00 0.00 0.00 84 1016.1
20260509050152 65 19 0.0 0.0 0.00 0.00 0.00 84 1016.1
20260509045652 65 19 0.0 0.0 0.00 0.00 0.00 84 1016.0
20260509045149 65 124 0.0 0.0 0.00 0.00 0.00 84 1015.9
20260509044652 65 124 0.0 0.0 0.00 0.00 0.00 84 1015.9
20260509044149 65 124 0.0 0.0 0.00 0.00 0.00 84 1015.9
20260509043649 65 186 0.0 0.0 0.00 0.00 0.00 84 1015.8
20260509043152 65 185 0.0 0.0 0.00 0.00 0.00 84 1015.8
20260509042649 65 185 0.0 0.0 0.00 0.00 0.00 84 1015.8
20260509042158 65 185 0.0 0.0 0.00 0.00 0.00 84 1015.7
20260509041655 65 185 0.0 0.0 0.00 0.00 0.00 84 1015.7
20260509041155 65 185 0.0 1.0 0.00 0.00 0.00 84 1015.7
20260509040652 65 185 0.0 0.0 0.00 0.00 0.00 84 1015.7
20260509040152 65 185 0.0 1.0 0.00 0.00 0.00 84 1015.8
20260509035652 65 185 0.0 3.0 0.00 0.00 0.00 84 1015.7
20260509035149 65 157 2.0 2.0 0.00 0.00 0.00 84 1015.7
20260509034649 65 157 0.0 0.0 0.00 0.00 0.00 84 1015.6
20260509034149 65 157 0.0 0.0 0.00 0.00 0.00 84 1015.7
20260509033652 65 157 0.0 0.0 0.00 0.00 0.00 84 1015.7
20260509033152 65 157 0.0 0.0 0.00 0.00 0.00 84 1015.7
20260509032649 65 157 0.0 0.0 0.00 0.00 0.00 84 1015.6
20260509032155 65 157 0.0 2.0 0.00 0.00 0.00 83 1015.6
20260509031649 65 157 0.0 3.0 0.00 0.00 0.00 83 1015.5
20260509031152 65 157 0.0 1.0 0.00 0.00 0.00 83 1015.6
20260509030652 65 157 1.0 3.0 0.00 0.00 0.00 83 1015.5
20260509030149 65 167 0.0 3.0 0.00 0.00 0.00 83 1015.5
20260509025655 64 136 0.0 4.0 0.00 0.00 0.00 82 1015.4
20260509025149 64 190 3.0 3.0 0.00 0.00 0.00 82 1015.3
20260509024658 64 185 1.0 4.0 0.00 0.00 0.00 82 1015.3
20260509024155 64 196 1.0 3.0 0.00 0.00 0.00 81 1015.3
20260509023649 64 151 0.0 0.0 0.00 0.00 0.00 81 1015.4
20260509023152 63 151 0.0 0.0 0.00 0.00 0.00 81 1015.4
20260509022655 63 151 0.0 1.0 0.00 0.00 0.00 80 1015.4
20260509022152 63 151 0.0 3.0 0.00 0.00 0.00 79 1015.4
20260509021649 64 183 3.0 3.0 0.00 0.00 0.00 80 1015.3
20260509021152 64 117 3.0 5.0 0.00 0.00 0.00 79 1015.4
20260509020649 64 141 0.0 5.0 0.00 0.00 0.00 79 1015.3
20260509020147 64 135 3.0 6.0 0.00 0.00 0.00 78 1015.3
20260509015653 64 171 2.0 2.0 0.00 0.00 0.00 78 1015.3
20260509015147 64 154 1.0 2.0 0.00 0.00 0.00 78 1015.2
20260509014650 64 154 0.0 3.0 0.00 0.00 0.00 77 1015.2
20260509014153 64 159 0.0 0.0 0.00 0.00 0.00 77 1015.2
20260509013653 64 159 0.0 0.0 0.00 0.00 0.00 77 1015.1
20260509013147 64 159 0.0 0.0 0.00 0.00 0.00 77 1015.1
20260509012653 64 159 0.0 0.0 0.00 0.00 0.00 77 1015.0
20260509012147 65 159 0.0 0.0 0.00 0.00 0.00 77 1015.0
20260509011650 65 159 0.0 0.0 0.00 0.00 0.00 77 1015.0
20260509011150 65 159 0.0 0.0 0.00 0.00 0.00 77 1014.9
20260509010650 65 159 0.0 0.0 0.00 0.00 0.00 77 1014.8
20260509010147 65 159 0.0 0.0 0.00 0.00 0.00 77 1014.8
20260509005650 65 159 0.0 0.0 0.00 0.00 0.00 77 1014.8
20260509005153 65 159 0.0 0.0 0.00 0.00 0.00 76 1014.7
20260509004647 65 159 0.0 0.0 0.00 0.00 0.00 76 1014.7
20260509004147 65 159 0.0 0.0 0.00 0.00 0.00 76 1014.7
20260509003651 65 159 0.0 0.0 0.00 0.00 0.00 76 1014.8
20260509003147 65 159 0.0 0.0 0.00 0.00 0.00 76 1014.9
20260509002647 65 159 0.0 0.0 0.00 0.00 0.00 76 1014.9
20260509002147 66 159 0.0 0.0 0.00 0.00 0.00 76 1015.0
20260509001647 66 159 0.0 0.0 0.00 0.00 0.00 75 1014.9
20260509001150 65 159 0.0 0.0 0.00 0.00 0.00 75 1014.9
20260509000653 66 159 0.0 0.0 0.00 0.00 0.00 75 1015.0
20260509000150 66 159 0.0 0.0 0.00 0.00 0.00 75 1015.0
20260508235653 66 159 0.0 0.0 0.00 0.00 0.00 74 1015.0
20260508235147 66 146 0.0 0.0 0.00 0.00 0.00 74 1014.9
20260508234650 66 146 0.0 0.0 0.00 0.00 0.00 74 1014.8
20260508234150 66 200 0.0 0.0 0.00 0.00 0.00 74 1014.9
20260508233650 67 152 0.0 0.0 0.00 0.00 0.00 73 1014.8
20260508233147 67 152 0.0 0.0 0.00 0.00 0.00 73 1014.9
20260508232647 67 151 0.0 0.0 0.00 0.00 0.00 73 1015.0
20260508232153 66 152 0.0 0.0 0.00 0.00 0.00 73 1015.1
20260508231654 66 152 0.0 0.0 0.00 0.00 0.00 73 1015.1
20260508231150 66 152 0.0 0.0 0.00 0.00 0.00 73 1015.2
20260508230647 67 151 0.0 0.0 0.00 0.00 0.00 73 1015.3
20260508230147 67 151 0.0 0.0 0.00 0.00 0.00 72 1015.3
20260508225650 67 152 0.0 0.0 0.00 0.00 0.00 73 1015.3
20260508225150 67 151 0.0 0.0 0.00 0.00 0.00 72 1015.4
20260508224647 67 152 0.0 0.0 0.00 0.00 0.00 73 1015.5
20260508224147 67 152 0.0 0.0 0.00 0.00 0.00 73 1015.5
20260508223647 67 151 0.0 0.0 0.00 0.00 0.00 73 1015.4
20260508223153 67 152 0.0 0.0 0.00 0.00 0.00 73 1015.2